When you browse on this site, cookies collect data to enhance your experience and personalize the content and advertising you see.
Visit our Privacy Policy to learn more. By continuing to use the site, you agree to this use of cookies and data.
  • In Österreich
  • Länderverzeichnis
  • Für 7 Tage
  • Wassertemperatur
  • Wetterkarte
  • News
  • Widgets
  • user-avatar
    Anmelden

    Stündliche Wetter Huichapan

    Heute, 21 Oktober, Montag

    Zeit Temperatur Niederschläge Wind Luftdruck Luftfeuchtigkeit
    00:00 +18°C° 0 mm 1 m/S 593 mmHg 81%
    01:00 +18°C° 0 mm 1 m/S 593 mmHg 82%
    02:00 +16°C° 0 mm 1 m/S 593 mmHg 83%
    03:00 +16°C° 0 mm 1 m/S 593 mmHg 84%
    04:00 +16°C° 0 mm 1 m/S 593 mmHg 84%
    05:00 +16°C° 0 mm 1 m/S 593 mmHg 85%
    06:00 +18°C° 0 mm 1 m/S 594 mmHg 80%
    07:00 +19°C° 0 mm 1 m/S 595 mmHg 74%
    08:00 +20°C° 0 mm 1 m/S 595 mmHg 69%
    09:00 +22°C° 0 mm 1 m/S 596 mmHg 63%
    10:00 +23°C° 0 mm 2 m/S 596 mmHg 58%
    11:00 +25°C° 0 mm 2 m/S 596 mmHg 52%
    12:00 +24°C° 0.7 mm 2 m/S 596 mmHg 54%
    13:00 +24°C° 0.7 mm 2 m/S 595 mmHg 55%
    14:00 +24°C° 0.7 mm 3 m/S 594 mmHg 57%
    15:00 +23°C° 1.1 mm 2 m/S 594 mmHg 61%
    16:00 +23°C° 1.1 mm 1 m/S 594 mmHg 65%
    17:00 +20°C° 1.1 mm 0 m/S 594 mmHg 69%
    18:00 +21°C° 1 mm 1 m/S 594 mmHg 72%
    19:00 +20°C° 1 mm 1 m/S 595 mmHg 75%
    20:00 +19°C° 1 mm 1 m/S 595 mmHg 78%
    21:00 +19°C° 0.7 mm 1 m/S 595 mmHg 79%
    22:00 +19°C° 0.7 mm 1 m/S 595 mmHg 80%
    23:00 +18°C° 0.7 mm 1 m/S 595 mmHg 81%

    Morgen, 22 Oktober, Dienstag

    Zeit Temperatur Niederschläge Wind Luftdruck Luftfeuchtigkeit
    00:00 +18°C° 0.7 mm 1 m/S 595 mmHg 83%
    01:00 +18°C° 0.7 mm 1 m/S 595 mmHg 85%
    02:00 +16°C° 0.7 mm 1 m/S 595 mmHg 87%
    03:00 +16°C° 0.4 mm 2 m/S 595 mmHg 89%
    04:00 +16°C° 0.4 mm 2 m/S 595 mmHg 91%
    05:00 +15°C° 0.4 mm 2 m/S 595 mmHg 93%
    06:00 +16°C° 0.1 mm 2 m/S 595 mmHg 89%
    07:00 +17°C° 0.1 mm 2 m/S 596 mmHg 85%
    08:00 +18°C° 0.1 mm 2 m/S 597 mmHg 81%
    09:00 +19°C° 0.2 mm 3 m/S 597 mmHg 77%
    10:00 +20°C° 0.2 mm 3 m/S 597 mmHg 74%
    11:00 +20°C° 0.2 mm 4 m/S 597 mmHg 70%
    12:00 +20°C° 0.3 mm 5 m/S 596 mmHg 70%
    13:00 +21°C° 0.3 mm 5 m/S 596 mmHg 69%
    14:00 +21°C° 0.3 mm 6 m/S 595 mmHg 69%
    15:00 +19°C° 0.2 mm 5 m/S 595 mmHg 74%
    16:00 +17°C° 0.2 mm 5 m/S 595 mmHg 78%
    17:00 +17°C° 0.2 mm 4 m/S 595 mmHg 83%
    18:00 +16°C° 0.1 mm 3 m/S 595 mmHg 86%
    19:00 +16°C° 0.1 mm 3 m/S 595 mmHg 89%
    20:00 +15°C° 0.1 mm 2 m/S 596 mmHg 92%
    21:00 +15°C° 0 mm 1 m/S 595 mmHg 92%
    22:00 +14°C° 0 mm 1 m/S 595 mmHg 93%
    23:00 +14°C° 0 mm 1 m/S 595 mmHg 93%

    übermorgen, 23 Oktober, Mittwoch

    Zeit Temperatur Niederschläge Wind Luftdruck Luftfeuchtigkeit
    00:00 +14°C° 0 mm 1 m/S 595 mmHg 92%
    01:00 +15°C° 0 mm 1 m/S 595 mmHg 90%
    02:00 +15°C° 0 mm 1 m/S 595 mmHg 89%
    03:00 +15°C° 0 mm 1 m/S 595 mmHg 89%
    04:00 +15°C° 0 mm 1 m/S 595 mmHg 89%
    05:00 +15°C° 0 mm 1 m/S 595 mmHg 89%
    06:00 +15°C° 0 mm 2 m/S 595 mmHg 87%
    07:00 +16°C° 0 mm 2 m/S 596 mmHg 84%
    08:00 +17°C° 0 mm 2 m/S 596 mmHg 82%
    09:00 +18°C° 0 mm 2 m/S 596 mmHg 76%
    10:00 +19°C° 0 mm 3 m/S 596 mmHg 70%
    11:00 +20°C° 0 mm 3 m/S 596 mmHg 64%
    12:00 +20°C° 0 mm 4 m/S 596 mmHg 63%
    13:00 +21°C° 0 mm 4 m/S 595 mmHg 63%
    14:00 +21°C° 0 mm 4 m/S 594 mmHg 62%
    15:00 +20°C° 0 mm 4 m/S 594 mmHg 67%
    16:00 +19°C° 0 mm 4 m/S 594 mmHg 72%
    17:00 +18°C° 0 mm 3 m/S 593 mmHg 78%
    18:00 +17°C° 0 mm 3 m/S 593 mmHg 83%
    19:00 +16°C° 0 mm 2 m/S 594 mmHg 88%
    20:00 +15°C° 0 mm 2 m/S 594 mmHg 93%
    21:00 +15°C° 0 mm 1 m/S 594 mmHg 94%
    22:00 +14°C° 0 mm 1 m/S 593 mmHg 95%
    23:00 +14°C° 0 mm 1 m/S 593 mmHg 96%

    24 Oktober, Donnerstag

    Zeit Temperatur Niederschläge Wind Luftdruck Luftfeuchtigkeit
    00:00 +14°C° 0 mm 1 m/S 593 mmHg 96%
    01:00 +13°C° 0 mm 1 m/S 592 mmHg 95%
    02:00 +13°C° 0 mm 1 m/S 592 mmHg 95%
    03:00 +13°C° 0 mm 1 m/S 592 mmHg 94%
    04:00 +12°C° 0 mm 0 m/S 592 mmHg 94%
    05:00 +12°C° 0 mm 0 m/S 592 mmHg 93%
    06:00 +13°C° 0 mm 0 m/S 593 mmHg 88%
    07:00 +14°C° 0 mm 0 m/S 594 mmHg 82%
    08:00 +16°C° 0 mm 1 m/S 594 mmHg 77%
    09:00 +19°C° 0 mm 1 m/S 594 mmHg 70%
    10:00 +20°C° 0 mm 1 m/S 595 mmHg 63%
    11:00 +21°C° 0 mm 2 m/S 595 mmHg 57%
    12:00 +21°C° 0 mm 2 m/S 594 mmHg 54%
    13:00 +22°C° 0 mm 3 m/S 594 mmHg 52%
    14:00 +24°C° 0 mm 3 m/S 594 mmHg 49%
    15:00 +21°C° 0.1 mm 3 m/S 593 mmHg 57%
    16:00 +20°C° 0.1 mm 3 m/S 593 mmHg 64%
    17:00 +19°C° 0.1 mm 3 m/S 593 mmHg 71%
    18:00 +18°C° 0.1 mm 3 m/S 593 mmHg 77%
    19:00 +17°C° 0.1 mm 2 m/S 593 mmHg 83%
    20:00 +16°C° 0.1 mm 2 m/S 593 mmHg 88%
    21:00 +16°C° 0 mm 2 m/S 593 mmHg 91%
    22:00 +15°C° 0 mm 1 m/S 593 mmHg 93%
    23:00 +15°C° 0 mm 1 m/S 593 mmHg 95%

    25 Oktober, Freitag

    Zeit Temperatur Niederschläge Wind Luftdruck Luftfeuchtigkeit
    00:00 +15°C° 0 mm 1 m/S 593 mmHg 94%
    01:00 +15°C° 0 mm 1 m/S 593 mmHg 93%
    02:00 +15°C° 0 mm 1 m/S 593 mmHg 91%
    03:00 +15°C° 0 mm 1 m/S 593 mmHg 89%
    04:00 +15°C° 0 mm 1 m/S 594 mmHg 88%
    05:00 +15°C° 0 mm 2 m/S 594 mmHg 86%
    06:00 +15°C° 0.1 mm 2 m/S 594 mmHg 85%
    07:00 +16°C° 0.1 mm 2 m/S 595 mmHg 84%
    08:00 +16°C° 0.1 mm 2 m/S 595 mmHg 83%
    09:00 +16°C° 0.1 mm 2 m/S 595 mmHg 82%
    10:00 +17°C° 0.1 mm 3 m/S 595 mmHg 81%
    11:00 +17°C° 0.1 mm 4 m/S 595 mmHg 80%
    12:00 +17°C° 0.1 mm 4 m/S 595 mmHg 79%
    13:00 +17°C° 0.1 mm 4 m/S 594 mmHg 78%
    14:00 +16°C° 0.1 mm 5 m/S 594 mmHg 78%
    15:00 +15°C° 0 mm 5 m/S 594 mmHg 80%
    16:00 +14°C° 0 mm 4 m/S 594 mmHg 82%
    17:00 +13°C° 0 mm 4 m/S 594 mmHg 84%
    18:00 +13°C° 0 mm 4 m/S 594 mmHg 84%
    19:00 +12°C° 0 mm 4 m/S 595 mmHg 85%
    20:00 +12°C° 0 mm 4 m/S 595 mmHg 85%
    21:00 +12°C° 0 mm 3 m/S 595 mmHg 86%
    22:00 +12°C° 0 mm 3 m/S 595 mmHg 86%
    23:00 +12°C° 0 mm 3 m/S 595 mmHg 86%

    26 Oktober, Samstag

    Zeit Temperatur Niederschläge Wind Luftdruck Luftfeuchtigkeit
    00:00 +12°C° 0 mm 3 m/S 595 mmHg 86%
    01:00 +12°C° 0 mm 2 m/S 595 mmHg 86%
    02:00 +12°C° 0 mm 2 m/S 594 mmHg 86%
    03:00 +12°C° 0 mm 2 m/S 594 mmHg 87%
    04:00 +12°C° 0 mm 2 m/S 594 mmHg 88%
    05:00 +12°C° 0 mm 2 m/S 594 mmHg 89%
    06:00 +12°C° 0 mm 2 m/S 595 mmHg 88%
    07:00 +12°C° 0 mm 2 m/S 595 mmHg 86%
    08:00 +13°C° 0 mm 2 m/S 595 mmHg 84%
    09:00 +14°C° 0 mm 2 m/S 595 mmHg 79%
    10:00 +15°C° 0 mm 2 m/S 595 mmHg 75%
    11:00 +16°C° 0 mm 2 m/S 595 mmHg 71%
    12:00 +16°C° 0 mm 3 m/S 595 mmHg 70%
    13:00 +17°C° 0 mm 3 m/S 594 mmHg 69%
    14:00 +17°C° 0 mm 4 m/S 594 mmHg 68%
    15:00 +16°C° 0 mm 3 m/S 594 mmHg 70%
    16:00 +14°C° 0 mm 3 m/S 594 mmHg 73%
    17:00 +14°C° 0 mm 3 m/S 594 mmHg 76%
    18:00 +14°C° 0.1 mm 2 m/S 594 mmHg 78%
    19:00 +14°C° 0.1 mm 2 m/S 594 mmHg 80%
    20:00 +13°C° 0.1 mm 1 m/S 594 mmHg 82%
    21:00 +13°C° 0.1 mm 1 m/S 594 mmHg 83%
    22:00 +13°C° 0.1 mm 1 m/S 594 mmHg 83%
    23:00 +14°C° 0.1 mm 1 m/S 594 mmHg 83%

    27 Oktober, Sonntag

    Zeit Temperatur Niederschläge Wind Luftdruck Luftfeuchtigkeit
    00:00 +13°C° 0 mm 1 m/S 594 mmHg 84%
    01:00 +12°C° 0 mm 0 m/S 593 mmHg 86%
    02:00 +12°C° 0 mm 0 m/S 593 mmHg 87%
    03:00 +11°C° 0 mm 0 m/S 593 mmHg 88%
    04:00 +11°C° 0 mm 0 m/S 593 mmHg 88%
    05:00 +11°C° 0 mm 0 m/S 592 mmHg 89%
    06:00 +14°C° 0 mm 1 m/S 593 mmHg 83%
    07:00 +15°C° 0 mm 1 m/S 594 mmHg 77%
    08:00 +18°C° 0 mm 1 m/S 595 mmHg 71%
    09:00 +19°C° 0 mm 1 m/S 595 mmHg 66%
    10:00 +20°C° 0 mm 2 m/S 596 mmHg 61%
    11:00 +21°C° 0 mm 2 m/S 596 mmHg 56%
    12:00 +22°C° 0.1 mm 3 m/S 596 mmHg 54%
    13:00 +22°C° 0.1 mm 3 m/S 595 mmHg 53%
    14:00 +22°C° 0.1 mm 3 m/S 595 mmHg 52%
    15:00 +21°C° 0.1 mm 3 m/S 595 mmHg 57%
    16:00 +20°C° 0.1 mm 3 m/S 595 mmHg 63%
    17:00 +19°C° 0.1 mm 3 m/S 594 mmHg 69%
    18:00 +18°C° 0 mm 3 m/S 594 mmHg 73%
    19:00 +17°C° 0 mm 2 m/S 594 mmHg 76%
    20:00 +16°C° 0 mm 1 m/S 595 mmHg 80%
    21:00 +15°C° 0 mm 1 m/S 594 mmHg 81%
    22:00 +15°C° 0 mm 1 m/S 594 mmHg 81%
    23:00 +15°C° 0 mm 1 m/S 594 mmHg 82%
    Mehr zeigen